Regional Weather Roundup
Issued by NWS

Home | Current Version | Previous Version | Graphics & Text | Print | Product List | Glossary On
Versions: 1 2 3 4 5 6 7 8 9 10 11 12 13 14 15 16 17 18 19 20 21 22 23 24 25 26 27 28 29 30 31 32 33 34 35 36 37 38 39 40 41 42 43 44 45 46 47 48 49 50
000
ASUS45 KTFX 241610
RWRMT
MONTANA REGIONAL WEATHER ROUNDUP
NATIONAL WEATHER SERVICE GREAT FALLS MT
1000 AM MDT MON APR 24 2017

NOTE: "FAIR" INDICATES FEW OR NO CLOUDS BELOW 12000 FEET WITH NO
SIGNIFICANT WEATHER AND/OR OBSTRUCTIONS TO VISIBILITY.

MTZ001>007-043-241700-
WEST OF THE DIVIDE

CITY           SKY/WX    TMP DP  RH WIND       PRES   REMARKS
KALISPELL      CLOUDY    45  40  82 SE7       29.67S
MISSOULA       CLOUDY    45  39  79 CALM      29.69F
BUTTE          SUNNY     41  31  67 VRB3      29.68F
MULLAN PASS    LGT SNOW  30  29  96 CALM      29.64F FOG
ANACONDA         N/A     43  36  75 SE5       29.67F
DEER LODGE       N/A     45  36  70 SE5       29.70F
EUREKA           N/A     45  39  81 SE7       29.67S
HAMILTON         N/A     45  36  70 S7        29.67F
LIBBY            N/A     45  39  81 CALM      29.67S
PLAINS           N/A     48  40  74 CALM      29.71F
$$

MTZ008-052>055-241700-
SOUTHWEST MONTANA

CITY           SKY/WX    TMP DP  RH WIND       PRES   REMARKS
BOZEMAN        MOSUNNY   42  38  85 S8        29.69F
DILLON         CLOUDY    41  33  73 W3        29.66F
W YELLOWSTONE  SNOW     N/A N/A N/A MISG        N/A  VSB 1/2
ENNIS          MOSUNNY   43  34  70 CALM      29.71F
THREE FORKS      N/A     45   8  22 SW6       29.71F
TWIN BRIDGES     N/A     44  32  63 SW3       29.70F
$$

MTZ009-010-012-014-046-048-049-054-241700-
EAST SLOPES AND CENTRAL MONTANA

CITY           SKY/WX    TMP DP  RH WIND       PRES   REMARKS
CUT BANK       PTSUNNY   46  34  62 N10       29.62F
GREAT FALLS    MOSUNNY   50  33  52 SW10      29.63F
MALMSTROM AFB  SUNNY     49  33  53 SW8       29.63F
HELENA         MOSUNNY   50  32  50 W9        29.65F
AUGUSTA          N/A     48  26  40 NW15      29.61F
BOWMANS CRNR     N/A     46  27  46 SW8       29.61F
CHOTEAU          N/A     50  27  40 W5        29.63F
FAIRFIELD        N/A     49  28  43 SW9       29.61F
POWER            N/A     47  35  60 SW8       29.62F
RAYNESFORD       N/A     48  35  62 N3        29.63F
ULM              N/A     49  35  57 SE3       29.63F
$$

MTZ011-013-016-021-045-047-050-051-241700-
NORTH CENTRAL MONTANA

CITY           SKY/WX    TMP DP  RH WIND       PRES   REMARKS
HAVRE          CLOUDY    41  39  93 CALM      29.65F
LEWISTOWN      CLOUDY    46  38  73 CALM      29.64F
N BAR RANCH    CLOUDY    48  36  61 NW6       29.66S
CHINOOK          N/A     39  37  93 E9        29.67S
DENTON         PTSUNNY   46  42  86 MISG      29.61S
FORT BENTON      N/A    N/A N/A N/A MISG      29.65F
GEYSER         PTSUNNY   47  36  64 W13       29.63F
GRASS RANGE    PTSUNNY   47  37  66 W3G40     29.60F
JUDITH GAP     PTSUNNY   44  35  73 S9        29.64S
STANFORD       PTSUNNY   45  35  67 N3        29.64S
WINIFRED       PTSUNNY   47  37  68 W6        29.63S
$$

MTZ017>020-022>027-061-062-241700-
NORTHEAST MONTANA

CITY           SKY/WX    TMP DP  RH WIND       PRES   REMARKS
GLASGOW        CLOUDY    36  32  85 E9        29.69F WCI  29
JORDAN           N/A     41  38  89 CALM      29.66F
SIDNEY         CLOUDY    34  31  88 NE7       29.71  WCI  28
WOLF POINT     CLOUDY    34  32  92 NE9       29.71F WCI  27
MALTA          CLOUDY    37  36  93 E8        29.69S WCI  31
PLENTYWOOD       N/A     28  27  93 NE14      29.73F WCI  17
POPLAR           N/A     32  30  93 NE7       29.72F WCI  26
SCOBEY           N/A     31  24  75 E9        29.71F WCI  23
$$

MTZ028>42-056>058-241700-
SOUTHCENTRAL AND SOUTHEAST MONTANA

CITY           SKY/WX    TMP DP  RH WIND       PRES   REMARKS
BAKER          CLOUDY    40  38  93 NW6       29.64S
BILLINGS       CLOUDY    50  38  63 CALM      29.65F
LIVINGSTON     LGT RAIN  40  38  93 NW9       29.68R FOG
MILES CITY     CLOUDY    45  41  86 NE3       29.65S
BIG TIMBER     CLOUDY    43  37  81 NE9       29.69S
EKALAKA          N/A     41  39  92 W6        29.65F
LAUREL           N/A     50  38  63 CALM      29.66S
ROUNDUP          N/A     44  41  89 S2        29.60F
$$

REGIONAL REPORTS...DAKOTAS

CITY           SKY/WX    TMP DP  RH WIND       PRES   REMARKS
WILLISTON      CLOUDY    33  27  78 E10       29.73S WCI  25
MINOT          LGT SNOW  31  27  85 N10       29.72S FOG     WCI  22
DICKINSON      CLOUDY    31  30  96 N5        29.63F
BEACH          DRIZZLE   34  36 100 CALM      29.68S
TIOGA          CLOUDY    28  28 100 E12G18    29.72F WCI  18
WATFORD CITY   CLOUDY    32  30  93 E8        29.69F WCI  25
BISMARCK       LGT RAIN  35  33  92 N12       29.66F WCI  27
GRAND FORKS    LGT RAIN  37  34  89 E9        29.68R WCI  30
FARGO          CLOUDY    49  36  61 E8        29.57F
BUFFALO SD       N/A     43  39  86 NW10      29.56F
RAPID CITY     CLOUDY    50  42  74 N18       29.62R
$$

REGIONAL REPORTS...WYOMING/IDAHO/WASHINGTON

CITY           SKY/WX    TMP DP  RH WIND       PRES   REMARKS
GILLETTE       PTSUNNY   50  42  74 NW6       29.65F
SHERIDAN       SUNNY     54  37  52 NW8       29.64F
BUFFALO WY     MOSUNNY   50  36  58 VRB3      29.67F
CODY           CLOUDY    49  33  54 CALM      29.65F
YELLOWSTONE LA   N/A     32  32 100 CALM      29.71F
IDAHO FALLS    LGT RAIN  41  39  93 SW9       29.72S
SALMON         CLOUDY    45  36  70 CALM      29.67F
BOISE          LGT RAIN  45  42  89 NW8       29.73S FOG
SPOKANE        CLOUDY    44  37  76 SW12      29.70R
$$

REGIONAL REPORTS...ALBERTA

CITY           SKY/WX    TMP DP  RH WIND       PRES   REMARKS
EDMONTON       MIX PCPN  34  32  93 E3        29.72S
CALGARY        LGT SNOW  32  30  93 NE7       29.67R VSB 5/8 WCI  26
LETHBRIDGE     CLOUDY    39  37  93 NE8       29.65S FOG
MEDICINE HAT   LGT RAIN  41  39  93 E5        29.65S
WATERTON GATE    N/A     41  34  75 NE5         N/A
MILK RIVER       N/A     43  37  81 N12         N/A
$$

REGIONAL REPORTS...SASKATCHEWAN

CITY           SKY/WX    TMP DP  RH WIND       PRES   REMARKS
SWIFT CURRENT  CLOUDY    30  30 100 E12G18    29.69S WCI  21
REGINA         CLOUDY    28  23  80 SE18      29.81F WCI  16
SASKATOON      CLOUDY    30  27  86 SE18G24   29.85F WCI  18
CYPRESS HILLS    N/A     37  36  93 SW3         N/A
VAL MARIE        N/A     36  34  93 SE6         N/A  WCI  31
ROCKGLEN         N/A     28  28 100 E7          N/A  WCI  21
$$



USA.gov is the U.S. government's official web portal to all federal, state and local government web resources and services.